Bowling Green, KY

3:45 AM CST on December 06, 2016 (GMT -0600)
Bowling Green-Warren County Regional

Weather History for KBWG - March, 2013

Change the Weather History Date:

Wednesday, March 20, 2013

  Actual Average Record
Temperature  
Mean Temperature 39 °F 50 °F  
Max Temperature 51 °F 61 °F 85 °F (1921)
Min Temperature 27 °F 38 °F 16 °F (1914)
Degree Days  
Heating Degree Days 26 16  
Month to date heating degree days 433 369  
Since 1 July heating degree days 3328 3567  
Cooling Degree Days 0 0  
Month to date cooling degree days 0 0  
Year to date cooling degree days 0 0  
Moisture  
Dew Point 20 °F    
Average Humidity 55    
Maximum Humidity 72    
Minimum Humidity 37    
Precipitation  
Precipitation 0.00 in 0.14 in 1.78 in (1980)
Month to date precipitation 4.01 2.77  
Year to date precipitation 11.70 10.34  
Snow  
Snow 0.00 in 0.00 in 6.00 in (1914)
Month to date snowfall 1.5 0.7  
Since 1 July snowfall 2.8 8.5  
Snow Depth 0.00 in    
Sea Level Pressure  
Sea Level Pressure 30.13 in    
Wind  
Wind Speed 7 mph (NW)    
Max Wind Speed 20 mph    
Max Gust Speed 25 mph    
Visibility 10 miles    
Events      
T = Trace of Precipitation, MM = Missing Value Source: NWS Daily Summary

Daily Weather History Graph

Daily Weather History Graph

Search for Another Location

Airport or City:

Trip Planner

Search our weather history database for the weather conditions in past years. The results will help you decide how hot, cold, wet, or windy it might be!

Date:

Astronomy

Mar. 20, 2013 Rise Set
Actual Time 6:48 AM CDT 6:57 PM CDT
Civil Twilight 6:22 AM CDT 7:23 PM CDT
Nautical Twilight 5:52 AM CDT 7:53 PM CDT
Astronomical Twilight 5:22 AM CDT 8:24 PM CDT
Moon 12:40 PM CDT (3/20) 2:20 AM CDT (3/20)
Length of Visible Light 13h 00m
Length of Day
12h 08m
First Quarter, 59% of the Moon is Illuminated
Mar 20
First Quarter
Mar 27
Full
Apr 2
Last Quarter
Apr 10
New
Apr 18
First Quarter

Hourly Weather History & Observations

Time (CDT) Temp. Windchill Dew Point Humidity Pressure Visibility Wind Dir Wind Speed Gust Speed Precip Events Conditions
12:53 AM 36.0 °F - 19.9 °F 52% 30.18 in 10.0 mi Calm Calm - N/A   Clear
1:53 AM 33.1 °F - 21.0 °F 61% 30.19 in 10.0 mi Calm Calm - N/A   Clear
2:53 AM 34.0 °F - 21.0 °F 59% 30.17 in 10.0 mi Calm Calm - N/A   Clear
3:53 AM 30.0 °F - 21.0 °F 69% 30.15 in 10.0 mi Calm Calm - N/A   Clear
4:53 AM 30.0 °F - 23.0 °F 75% 30.14 in 10.0 mi Calm Calm - N/A   Clear
5:53 AM 30.9 °F - 21.9 °F 69% 30.15 in 10.0 mi Calm Calm - N/A   Clear
6:53 AM 30.9 °F 25.2 °F 19.9 °F 64% 30.17 in 10.0 mi WSW 5.8 mph - N/A   Clear
7:53 AM 35.1 °F 30.1 °F 23.0 °F 61% 30.18 in 10.0 mi West 5.8 mph - N/A   Clear
8:53 AM 42.1 °F 37.7 °F 21.9 °F 45% 30.17 in 10.0 mi WSW 6.9 mph - N/A   Clear
9:53 AM 46.0 °F 41.9 °F 21.9 °F 39% 30.15 in 10.0 mi NW 8.1 mph - N/A   Clear
10:53 AM 46.9 °F - 24.1 °F 41% 30.14 in 10.0 mi West 11.5 mph 16.1 mph N/A   Clear
11:53 AM 48.9 °F - 26.1 °F 41% 30.13 in 10.0 mi WNW 10.4 mph 18.4 mph N/A   Partly Cloudy
12:53 PM 48.9 °F - 24.1 °F 38% 30.11 in 10.0 mi WNW 12.7 mph 20.7 mph N/A   Clear
1:53 PM 46.9 °F - 23.0 °F 39% 30.08 in 10.0 mi WNW 12.7 mph 25.3 mph N/A   Mostly Cloudy
2:53 PM 44.1 °F 37.7 °F 23.0 °F 43% 30.07 in 10.0 mi WNW 12.7 mph 23.0 mph N/A   Overcast
3:53 PM 41.0 °F 34.3 °F 26.1 °F 55% 30.08 in 10.0 mi NNW 11.5 mph 19.6 mph N/A   Overcast
4:53 PM 41.0 °F 32.8 °F 19.9 °F 43% 30.08 in 10.0 mi NW 16.1 mph 20.7 mph N/A   Partly Cloudy
5:53 PM 39.0 °F 31.8 °F 15.1 °F 38% 30.09 in 10.0 mi NW 11.5 mph 25.3 mph N/A   Clear
6:53 PM 36.0 °F 27.1 °F 12.0 °F 37% 30.09 in 10.0 mi NW 13.8 mph 23.0 mph N/A   Clear
7:53 PM 33.1 °F 25.5 °F 14.0 °F 46% 30.09 in 10.0 mi NNW 9.2 mph - N/A   Clear
8:53 PM 30.9 °F 25.2 °F 12.9 °F 47% 30.11 in 10.0 mi NW 5.8 mph - N/A   Clear
9:53 PM 30.0 °F 22.4 °F 12.9 °F 49% 30.11 in 10.0 mi NNW 8.1 mph - N/A   Clear
10:53 PM 28.0 °F 22.8 °F 12.9 °F 53% 30.11 in 10.0 mi North 4.6 mph - N/A   Clear
11:53 PM 27.0 °F 23.0 °F 12.9 °F 56% 30.11 in 10.0 mi NNW 3.5 mph - N/A   Clear